Home > Weather > Barnaul > Past weeks

Flag for Russia Weather for the Past 2 Weeks in Barnaul, Russia

Now
27 °F

Sunny.


Feels Like: 17 °F
Forecast: 31 / 56 °F
Wind: 10 mph from North

Location: Barnaul Airport

Current Time: May 3, 2016 at 7:09:51 AM

Latest Report: May 3, 2016 at 6:30 AM


Visibility: 10 mi

Pressure: 30.18 "Hg

Humidity: 59%

Dew Point: 14 °F

Location of BarnaulLocation

Historic Weather in Barnaul — Graph

°F

Barnaul Temperature Yesterday

Maximum temperature yesterday: 63 °F (at 1:30 PM)
Minimum temperature yesterday: 36 °F (at 9:30 PM)
Average temperature yesterday: 49 °F

High & Low Weather Summary for the Past Weeks

 TemperatureHumidityPressure
High79 °F (Apr 21, 3:30 PM)94% (Apr 23, 1:30 AM)30.18 "Hg (Apr 23, 1:30 AM)
Low27 °F (May 3, 5:00 AM)13% (Apr 21, 6:00 PM)29.80 "Hg (Apr 21, 6:00 PM)
Average54 °F56%29.97 "Hg
* Reported Apr 18 6:00 AM — May 3 6:00 AM, Barnaul, Weather by CustomWeather, © 2016

Note: Actual official high and low records may vary slightly from our data, if they occured in-between our weather recording intervals... More about our weather records

Advertising

Barnaul Weather History for the Previous 24 Hours

Scroll right to see more
 ConditionsComfort  
Time TempWeatherWind HumidityBarometerVisibility
6:00 AM
Tue, May 3
27 °FSunny.10 mph59%30.18 "Hg10 mi
5:30 AM27 °FSunny.10 mph59%30.15 "Hg10 mi
5:00 AM27 °FSunny.10 mph64%30.15 "Hg10 mi
4:00 AM28 °FClear.15 mph59%30.12 "Hg10 mi
3:30 AM30 °FClear.15 mph55%30.12 "Hg10 mi
3:00 AM30 °FClear.15 mph59%30.09 "Hg10 mi
2:30 AM32 °FPassing clouds.17 mph55%30.09 "HgN/A
2:00 AM32 °FPassing clouds.15 mph60%30.09 "HgN/A
1:30 AM34 °FPassing clouds.13 mph60%30.07 "HgN/A
1:00 AM34 °FPassing clouds.13 mph60%30.07 "HgN/A
12:30 AM34 °FPassing clouds.13 mph60%30.07 "HgN/A
12:00 AM36 °FPassing clouds.15 mph56%30.04 "HgN/A
11:30 PM
Mon, May 2
36 °FPassing clouds.15 mph60%30.04 "HgN/A
11:00 PM36 °FPassing clouds.20 mph60%30.04 "HgN/A
10:30 PM36 °FPassing clouds.17 mph65%30.01 "HgN/A
10:00 PM36 °FPassing clouds.15 mph75%30.01 "HgN/A
9:30 PM36 °FPassing clouds.20 mph70%29.98 "HgN/A
9:00 PM37 °FPassing clouds.20 mph65%29.98 "HgN/A
8:30 PM39 °FPassing clouds.15 mph65%29.95 "HgN/A
8:00 PM39 °FPassing clouds.17 mph65%29.95 "HgN/A
7:30 PM39 °FPartly sunny.20 mph65%29.95 "HgN/A
7:00 PM41 °FPartly sunny.20 mph66%29.92 "HgN/A
6:30 PM43 °FScattered clouds.22 mph61%29.92 "HgN/A
6:00 PM45 °FScattered clouds.22 mph57%29.92 "HgN/A
5:30 PM48 °FScattered clouds.22 mph54%29.89 "HgN/A
5:00 PM50 °FScattered clouds.22 mph50%29.86 "HgN/A
4:30 PM52 °FScattered clouds.22 mph47%29.83 "HgN/A
4:00 PM55 °FScattered clouds.17 mph41%29.80 "HgN/A
3:30 PM57 °FScattered clouds.17 mph41%29.80 "HgN/A
2:30 PM63 °FPartly sunny.20 mph25%29.80 "HgN/A
2:00 PM59 °FPartly sunny.17 mph27%29.80 "HgN/A
1:30 PM63 °FScattered clouds.17 mph19%29.80 "HgN/A
1:00 PM61 °FScattered clouds.17 mph22%29.80 "HgN/A
12:00 PM61 °FPartly sunny.17 mph20%29.80 "HgN/A
11:30 AM61 °FPartly sunny.15 mph25%29.80 "HgN/A
11:00 AM61 °FPartly sunny.15 mph25%29.80 "HgN/A
10:30 AM61 °FScattered clouds.13 mph23%29.83 "HgN/A
10:00 AM59 °FSunny.13 mph27%29.83 "Hg10 mi
9:30 AM57 °FSunny.10 mph31%29.83 "Hg10 mi
9:00 AM55 °FSunny.10 mph33%29.83 "Hg10 mi
8:30 AM52 °FSunny.6 mph38%29.83 "Hg10 mi
8:00 AM48 °FSunny.8 mph43%29.83 "Hg10 mi
7:30 AM46 °FSunny.8 mph46%29.83 "Hg10 mi
7:00 AM45 °FSunny.10 mph46%29.83 "Hg10 mi
Weather by CustomWeather, © 2016

See weather overviewHow to use our weather pages